Voltar ao catálogo

FENGYUN 1C DEB

LostPO
NORAD 36667·DEBRIS·🇨🇳 China

Lançado May 10, 1999 de Taiyuan Satellite Launch Center

Loading…

Próximas Passagens (próximas 24 horas)

TLE

ObsoletoSource: Space-Track

Época: Sep 14, 2022, 11:25 UTC

1 36667U 99025DYM 22257.47585911  .00001165  00000-0  77383-3 0  9995
2 36667  97.7635 133.6385 0126661 114.0676 247.3804 13.98980705751611

Acompanhe FENGYUN 1C DEB em tempo real com AllMySat

Download on the App Store